#timestamp,LO_Frequency,Hit 
1503864015.4,286047000.1,N
1503864035.3,286047002.3,N
1503864055.1,286047002.6,N
1503864056.0,286047002.6,N
1503864075.8,286047000.2,N
1503864095.7,286047001.8,N
1503864115.5,286047004.2,N
1503864135.3,286047005.9,N
1503864155.1,286047003.3,N
1503864175.9,286047002.9,N
1503864195.7,286047009.2,P
1503864215.6,286047003.5,N
1503864235.4,286047003.0,N
1503864255.2,286047001.5,N
1503864275.0,286047004.3,N
1503864276.0,286047004.3,N
1503864295.8,286047003.8,N
1503864315.6,286047003.8,N
1503864335.4,286047005.1,N
1503864355.3,286047003.4,N
1503864375.1,286047004.2,N
1503864395.8,286047004.9,N
1503864415.7,286047004.2,N
1503864435.5,286047006.4,P
1503864455.3,286047001.8,N
1503864475.2,286047001.6,N
1503864495.9,286047005.7,N
1503864515.7,286047005.7,N
1503864535.6,286047005.2,N
1503864555.4,286047005.4,N
1503864575.2,286047005.6,P
1503864595.1,286047000.6,N
1503864596.0,286047000.6,N
1503864615.8,286047000.4,N
1503864635.6,286047000.7,N
1503864655.5,286046998.1,N
1503864675.3,286047000.3,N
1503864695.1,286047000.8,N
1503864715.9,286046998.5,N
1503864735.7,286046996.5,N
1503864755.5,286046997.0,N
1503864775.4,286046999.3,N
1503864795.2,286046998.7,N
1503864815.0,286046999.0,N
1503864815.9,286046999.0,N
1503864835.7,286046999.5,N
1503864855.6,286046997.1,N
1503864875.4,286046997.7,N
1503864895.2,286046995.3,N
1503864915.1,286046997.8,N
1503864916.0,286046997.8,N
1503864935.8,286046995.8,N
1503864955.6,286046993.7,N
1503864975.5,286046994.0,N
1503864995.3,286046993.8,N
1503865015.1,286046996.2,N
1503865035.9,286046997.7,N
1503865055.7,286046997.7,N
1503865075.5,286046994.9,N
1503865095.4,286046997.7,N
1503865115.2,286046993.2,N
1503865135.0,286046991.6,P
1503865135.9,286046991.6,N
1503865155.8,286046996.1,N
1503865175.6,286046997.9,N
1503865195.4,286046996.7,N
1503865215.3,286046997.5,N
1503865235.1,286046995.9,N
1503865255.8,286046996.3,N
1503865275.7,286046993.6,N
1503865295.5,286046995.8,N
1503865315.3,286046999.5,N
1503865335.2,286046997.0,N
1503865355.9,286046999.5,N
1503865375.7,286046999.3,N
1503865395.5,286046998.6,N
1503865415.4,286047000.9,N
1503865435.2,286046998.2,N
1503865455.0,286046998.8,N
1503865455.9,286046998.8,N
1503865475.8,286046998.4,N
1503865495.6,286047002.1,N
1503865515.4,286047002.1,N
1503865535.3,286047001.5,N
1503865555.1,286047002.1,N
1503865575.8,286046999.8,N
1503865595.7,286047001.6,N
1503865615.5,286047004.1,N
1503865635.3,286047002.7,N
1503865655.2,286047004.2,N
1503865675.9,286047005.9,N
1503865695.7,286047002.9,N
1503865715.6,286047005.8,N
1503865735.4,286047004.2,N
1503865755.2,286047000.6,N
1503865775.0,286047002.3,N
1503865795.4,286047003.9,N
1503865815.2,286047006.0,N
1503865835.1,286047003.6,N
1503865836.0,286047003.6,N
1503865855.8,286047007.2,N
1503865875.6,286047006.0,N
1503865895.5,286047001.9,N
1503865915.3,286047002.6,N
1503865935.1,286047001.8,N
1503865955.9,286047001.7,N
1503865975.7,286047001.7,N
1503865995.5,286047001.6,N
1503866015.4,286047002.0,N
1503866035.2,286047003.2,N
1503866055.0,286047005.8,P
1503866055.9,286047005.8,P
1503866075.8,286047005.9,P
1503866095.6,286047003.1,N
1503866115.4,286047004.1,N
1503866135.3,286047004.1,P
1503866155.1,286046997.4,P
1503866175.8,286046998.8,N
1503866195.7,286046997.6,N
1503866215.5,286046993.3,N
1503866235.3,286046996.2,N
1503866255.2,286046995.4,N
1503866275.9,286046997.6,N
1503866295.7,286046993.8,N
1503866315.6,286046995.8,N
1503866335.4,286046996.6,N
1503866355.2,286046999.2,N
1503866375.0,286046999.1,N
1503866375.9,286046999.1,N
1503866395.8,286046997.6,N
1503866415.6,286046995.4,N
1503866435.4,286046995.6,N
1503866455.3,286046994.0,N
1503866475.1,286046993.3,N
1503866476.0,286046993.3,N
1503866495.8,286046998.0,N
1503866515.7,286046996.1,N
1503866535.5,286046996.1,N
1503866555.3,286046994.1,N
1503866575.2,286046994.2,N
1503866595.9,286046994.4,N
1503866615.7,286046994.2,N
1503866635.6,286046996.5,N
1503866655.4,286046995.0,N
1503866675.2,286046994.5,N
1503866695.0,286046993.5,N
1503866696.0,286046993.5,P
1503866715.8,286046997.3,N
1503866735.6,286046997.5,N
1503866755.4,286046997.7,N
1503866775.3,286046996.7,N
1503866795.1,286046997.3,N
1503866815.5,286046997.1,N
1503866835.4,286047001.2,N
1503866855.2,286046999.6,N
1503866875.0,286046998.4,N
1503866875.9,286046998.4,N
1503866895.8,286046999.8,N
1503866915.6,286047000.6,N
1503866935.4,286047000.8,N
1503866955.2,286047000.9,N
1503866975.1,286047000.5,N
1503866976.0,286047000.5,N
1503866995.8,286047000.2,N
1503867015.6,286047002.4,N
1503867035.5,286047000.4,N
1503867055.3,286047001.0,N
1503867075.1,286046998.4,N
1503867095.9,286046996.7,N
1503867115.7,286046996.6,N
1503867135.5,286046997.9,N
1503867155.4,286046996.5,N
1503867175.2,286046999.5,N
1503867195.0,286046996.6,N
1503867195.9,286046996.6,N
1503867215.7,286046997.7,N
1503867235.6,286046996.9,N
1503867255.4,286046997.3,N
1503867275.2,286046997.2,N
1503867295.1,286046996.8,N
1503867296.0,286046996.8,N
1503867315.8,286047000.0,N
1503867335.6,286047002.3,N
1503867355.5,286047001.5,N
1503867375.3,286047001.8,N
1503867395.1,286047004.0,N
1503867415.9,286047004.3,N
1503867435.7,286047003.7,N
1503867455.5,286047003.8,N
1503867475.4,286047003.4,N
1503867495.2,286047005.8,N
1503867515.0,286047005.1,N
1503867515.9,286047005.1,N
1503867535.8,286047005.8,N
1503867555.6,286047005.3,N
1503867575.4,286047005.8,N
1503867595.2,286047002.8,N
